contact:dominique.lefevre@mio.osupytheas.fr, maurice.libes@osupytheas.fr, didier.mallarino@osupytheas.fr
Project:EMSO http://www.emso-fr.org/EMSO-France
Depth: 2436.0 m
Title:EMSO Ligure Ouest : Data MII capteur AQUADOPP
Date,Latitude,Longitude,X_East,Y_North,Z_Up,Amplitude_X,Amplitude_Y,Amplitude_Z,Batterie,SoundSpeed,Heading,Pitch,Roll,Pressure,TIS,Speed,Direction
, degrees North, degrees East, m.s-1, m.s-1,m.s-1, 1, 1, 1, Volt, m.s-1, degree, degree, degree, dbar, degree_C, m.s-1, degree
2019-11-10T00:09:08,42.805,6.029,0.02,0.04,-0.045,99.0,114.0,98.0,13.4,1505.2,327.9,-0.7,1.8,2470.065,13.29,0.044,26.6
2019-11-10T00:12:11,42.805,6.029,0.045,0.035,-0.011,101.0,113.0,98.0,13.3,1505.2,324.6,-0.7,1.8,2470.006,13.3,0.057,52.1
2019-11-10T00:15:14,42.805,6.029,0.027,0.024,-0.04,100.0,114.0,98.0,13.4,1505.3,328.5,-0.7,1.9,2469.991,13.31,0.036,48.4
2019-11-10T00:18:17,42.805,6.029,0.026,0.031,-0.034,100.0,113.0,97.0,13.4,1505.3,326.7,-0.7,1.8,2470.025,13.31,0.04,40.0
2019-11-10T00:21:20,42.805,6.029,0.063,0.02,-0.032,101.0,112.0,98.0,13.3,1505.3,326.4,-0.7,1.9,2470.011,13.32,0.066,72.4
2019-11-10T00:24:23,42.805,6.029,0.028,0.02,-0.032,100.0,112.0,97.0,13.4,1505.3,324.7,-0.8,1.8,2469.996,13.32,0.034,54.5
2019-11-10T00:27:26,42.805,6.029,0.062,0.021,-0.03,98.0,112.0,99.0,13.3,1505.3,324.4,-0.8,1.9,2470.016,13.32,0.065,71.3
2019-11-10T00:30:29,42.805,6.029,0.016,0.016,-0.054,98.0,114.0,99.0,13.4,1505.3,327.4,-0.7,1.8,2469.965,13.32,0.022,45.0
2019-11-10T00:33:32,42.805,6.029,0.019,0.032,-0.039,99.0,113.0,98.0,13.3,1505.3,324.4,-0.7,1.8,2469.971,13.32,0.037,30.7
2019-11-10T00:36:35,42.805,6.029,0.041,0.007,-0.061,99.0,113.0,98.0,13.3,1505.3,326.9,-0.7,1.9,2469.999,13.32,0.041,80.3
2019-11-10T00:39:38,42.805,6.029,0.037,0.039,-0.044,98.0,112.0,98.0,13.4,1505.3,323.1,-0.8,1.8,2470.013,13.32,0.053,43.5
2019-11-10T00:42:41,42.805,6.029,0.036,0.005,-0.029,99.0,115.0,98.0,13.3,1505.3,326.2,-0.7,1.8,2469.981,13.32,0.036,82.1
2019-11-10T00:45:44,42.805,6.029,0.046,0.027,-0.05,99.0,115.0,97.0,13.4,1505.3,325.1,-0.7,1.9,2469.97,13.32,0.053,59.6
2019-11-10T00:48:47,42.805,6.029,0.035,0.024,-0.038,99.0,114.0,98.0,13.4,1505.3,328.0,-0.7,1.8,2469.968,13.32,0.042,55.6
2019-11-10T00:51:50,42.805,6.029,0.02,0.015,-0.055,99.0,117.0,98.0,13.4,1505.3,323.7,-0.7,1.8,2469.963,13.32,0.025,53.1
2019-11-10T00:54:53,42.805,6.029,0.031,0.004,-0.012,99.0,116.0,97.0,13.4,1505.3,324.7,-0.7,1.8,2469.981,13.32,0.031,82.7
2019-11-10T00:57:56,42.805,6.029,0.033,0.01,-0.025,98.0,112.0,97.0,13.3,1505.3,323.9,-0.7,1.9,2469.958,13.32,0.034,73.1
2019-11-10T01:09:08,42.805,6.029,0.045,0.005,-0.027,99.0,114.0,97.0,13.4,1505.2,325.1,-0.7,1.8,2470.035,13.29,0.045,83.7
2019-11-10T01:12:11,42.805,6.029,0.033,0.038,0.028,99.0,117.0,98.0,13.4,1505.2,323.2,-0.7,1.9,2470.039,13.3,0.05,41.0
2019-11-10T01:15:14,42.805,6.029,0.042,0.025,0.003,99.0,119.0,97.0,13.4,1505.3,325.9,-0.8,1.8,2470.04,13.31,0.048,59.2
2019-11-10T01:18:17,42.805,6.029,0.035,0.015,-0.046,98.0,115.0,97.0,13.4,1505.3,323.1,-0.7,1.8,2470.009,13.31,0.038,66.8
2019-11-10T01:21:20,42.805,6.029,0.055,0.018,-0.007,101.0,112.0,97.0,13.4,1505.3,325.2,-0.7,1.9,2470.007,13.31,0.057,71.9
2019-11-10T01:24:23,42.805,6.029,0.038,0.004,-0.034,100.0,113.0,97.0,13.4,1505.3,324.8,-0.8,1.8,2470.043,13.32,0.038,84.0
2019-11-10T01:27:26,42.805,6.029,0.049,-0.003,-0.017,99.0,113.0,98.0,13.4,1505.3,326.1,-0.7,1.8,2470.014,13.32,0.049,93.5
2019-11-10T01:30:29,42.805,6.029,0.054,0.002,-0.003,100.0,111.0,99.0,13.4,1505.3,327.4,-0.7,1.8,2469.998,13.32,0.054,87.9
2019-11-10T01:33:32,42.805,6.029,0.037,-0.006,-0.037,100.0,112.0,98.0,13.4,1505.3,327.9,-0.7,1.8,2469.988,13.32,0.037,99.2
2019-11-10T01:36:35,42.805,6.029,0.039,-0.005,-0.028,101.0,113.0,98.0,13.3,1505.3,327.8,-0.7,1.8,2469.972,13.32,0.039,97.3
2019-11-10T01:39:38,42.805,6.029,0.004,0.004,-0.036,99.0,114.0,98.0,13.3,1505.3,325.6,-0.7,1.9,2470.033,13.32,0.005,45.0
2019-11-10T01:42:41,42.805,6.029,0.033,-0.018,-0.031,98.0,112.0,98.0,13.4,1505.3,326.9,-0.7,1.8,2470.003,13.32,0.037,118.6
2019-11-10T01:45:44,42.805,6.029,0.041,-0.002,-0.009,100.0,111.0,97.0,13.3,1505.3,326.2,-0.7,1.8,2470.013,13.32,0.041,92.8
2019-11-10T01:48:47,42.805,6.029,0.051,0.019,-0.004,99.0,111.0,98.0,13.4,1505.3,326.0,-0.7,1.8,2469.981,13.32,0.054,69.6
2019-11-10T01:51:50,42.805,6.029,0.041,-0.009,-0.03,99.0,111.0,97.0,13.4,1505.3,324.1,-0.7,1.8,2469.997,13.32,0.041,102.4
2019-11-10T01:54:53,42.805,6.029,0.03,-0.006,-0.012,99.0,111.0,98.0,13.4,1505.3,327.1,-0.7,1.8,2470.015,13.32,0.03,101.3
2019-11-10T01:57:56,42.805,6.029,0.046,-0.026,-0.051,100.0,110.0,98.0,13.4,1505.3,327.2,-0.7,1.8,2470.043,13.32,0.052,119.5
2019-11-10T02:09:09,42.805,6.029,0.028,-0.018,-0.041,99.0,108.0,97.0,13.4,1505.2,325.3,-0.8,1.8,2470.105,13.29,0.033,122.7
2019-11-10T02:12:12,42.805,6.029,0.03,0.011,-0.044,99.0,111.0,97.0,13.4,1505.2,328.1,-0.7,1.8,2470.067,13.3,0.031,69.9
2019-11-10T02:15:15,42.805,6.029,0.049,-0.001,-0.014,99.0,109.0,98.0,13.4,1505.3,325.6,-0.7,1.8,2470.058,13.31,0.049,91.2
2019-11-10T02:18:18,42.805,6.029,0.057,-0.015,-0.029,99.0,112.0,98.0,13.3,1505.3,324.0,-0.7,1.8,2470.06,13.31,0.058,104.7
2019-11-10T02:21:21,42.805,6.029,0.009,-0.01,-0.043,98.0,111.0,98.0,13.3,1505.3,324.6,-0.8,1.8,2470.063,13.32,0.013,138.0
2019-11-10T02:24:24,42.805,6.029,0.036,0.018,-0.04,99.0,110.0,98.0,13.3,1505.3,323.3,-0.7,1.8,2470.036,13.32,0.04,63.4
2019-11-10T02:27:27,42.805,6.029,0.071,0.027,0.01,99.0,104.0,98.0,13.3,1505.3,328.0,-0.7,1.8,2470.051,13.32,0.075,69.2
2019-11-10T02:30:30,42.805,6.029,0.061,-0.019,-0.037,99.0,108.0,99.0,13.4,1505.3,326.9,-0.7,1.8,2470.048,13.32,0.063,107.3
2019-11-10T02:33:33,42.805,6.029,0.03,-0.027,-0.037,100.0,111.0,97.0,13.3,1505.3,328.6,-0.7,1.9,2470.036,13.32,0.04,132.0
2019-11-10T02:36:36,42.805,6.029,0.034,-0.003,-0.016,99.0,107.0,97.0,13.4,1505.3,324.9,-0.7,1.8,2470.016,13.32,0.034,95.0
2019-11-10T02:39:39,42.805,6.029,0.042,0.018,-0.007,99.0,108.0,98.0,13.4,1505.3,323.7,-0.7,1.8,2470.069,13.32,0.045,66.8
2019-11-10T02:42:42,42.805,6.029,0.073,-0.015,-0.032,100.0,106.0,97.0,13.3,1505.3,325.6,-0.7,1.8,2470.062,13.32,0.074,101.6
2019-11-10T02:45:45,42.805,6.029,0.039,-0.002,-0.027,98.0,109.0,98.0,13.4,1505.3,327.2,-0.7,1.8,2470.055,13.32,0.039,92.9
2019-11-10T02:48:48,42.805,6.029,0.068,0.012,-0.019,99.0,108.0,97.0,13.4,1505.3,327.2,-0.7,1.9,2470.069,13.32,0.069,80.0
2019-11-10T02:51:51,42.805,6.029,0.051,-0.018,-0.032,98.0,105.0,98.0,13.4,1505.3,326.4,-0.7,1.8,2470.057,13.32,0.054,109.4
2019-11-10T02:54:54,42.805,6.029,0.054,0.007,-0.022,99.0,107.0,97.0,13.4,1505.3,325.2,-0.7,1.8,2470.03,13.32,0.054,82.6
2019-11-10T02:57:57,42.805,6.029,0.054,0.014,-0.012,100.0,108.0,97.0,13.4,1505.3,328.1,-0.7,1.8,2470.054,13.32,0.055,75.5
2019-11-10T03:04:09,42.805,6.029,0.042,-0.005,-0.022,99.0,108.0,98.0,13.4,1505.3,328.2,-0.7,1.8,2470.045,13.32,0.042,96.8
2019-11-10T03:07:12,42.805,6.029,0.063,0.008,0.004,101.0,105.0,98.0,13.3,1505.3,326.8,-0.7,1.8,2470.056,13.32,0.063,82.8
2019-11-10T03:10:15,42.805,6.029,0.052,0.002,-0.004,99.0,106.0,97.0,13.4,1505.3,324.4,-0.7,1.9,2470.097,13.32,0.052,87.8
2019-11-10T03:13:18,42.805,6.029,0.084,-0.017,-0.032,99.0,109.0,97.0,13.4,1505.3,328.2,-0.7,1.8,2470.055,13.32,0.085,101.4
2019-11-10T03:16:21,42.805,6.029,0.07,0.01,-0.009,101.0,106.0,97.0,13.4,1505.3,325.0,-0.7,1.9,2470.094,13.32,0.07,81.9
2019-11-10T03:19:24,42.805,6.029,0.076,0.0,-0.019,99.0,105.0,97.0,13.4,1505.3,323.9,-0.7,1.8,2470.061,13.32,0.075,90.0
2019-11-10T03:22:27,42.805,6.029,0.066,0.006,0.019,99.0,105.0,98.0,13.4,1505.3,328.6,-0.7,1.8,2470.101,13.32,0.066,84.8
2019-11-10T03:25:30,42.805,6.029,0.058,0.02,0.009,99.0,105.0,97.0,13.4,1505.3,325.4,-0.7,1.8,2470.11,13.32,0.061,71.0
2019-11-10T03:28:33,42.805,6.029,0.071,-0.002,-0.022,98.0,103.0,99.0,13.4,1505.3,323.5,-0.7,1.8,2470.029,13.32,0.071,91.6
2019-11-10T03:31:36,42.805,6.029,0.074,-0.007,0.016,100.0,104.0,98.0,13.4,1505.3,327.9,-0.7,1.8,2470.062,13.32,0.074,95.4
2019-11-10T03:34:39,42.805,6.029,0.058,-0.013,-0.027,100.0,104.0,97.0,13.4,1505.3,326.5,-0.7,1.8,2470.057,13.32,0.059,102.6
2019-11-10T03:37:42,42.805,6.029,0.072,0.008,0.003,100.0,105.0,97.0,13.4,1505.3,326.4,-0.7,1.9,2470.068,13.32,0.072,83.7
2019-11-10T03:40:45,42.805,6.029,0.065,-0.003,-0.011,100.0,105.0,97.0,13.4,1505.3,324.2,-0.7,1.9,2470.103,13.32,0.065,92.6
2019-11-10T03:43:48,42.805,6.029,0.078,-0.009,-0.002,100.0,103.0,98.0,13.4,1505.3,326.4,-0.7,1.8,2470.076,13.32,0.078,96.6
2019-11-10T03:46:51,42.805,6.029,0.072,-0.002,0.032,98.0,103.0,98.0,13.3,1505.3,323.8,-0.8,1.8,2470.125,13.32,0.072,91.6
2019-11-10T03:49:54,42.805,6.029,0.086,-0.002,0.002,98.0,106.0,98.0,13.4,1505.3,325.2,-0.7,1.8,2470.087,13.32,0.086,91.3
2019-11-10T03:52:57,42.805,6.029,0.039,0.01,0.033,99.0,106.0,98.0,13.4,1505.3,324.1,-0.7,1.8,2470.115,13.32,0.04,75.6
2019-11-10T03:56:00,42.805,6.029,0.061,-0.003,-0.036,101.0,106.0,97.0,13.4,1505.3,327.4,-0.7,1.9,2470.102,13.32,0.061,92.8
2019-11-10T03:59:03,42.805,6.029,0.104,0.004,-0.039,100.0,103.0,98.0,13.4,1505.3,325.0,-0.7,1.9,2470.08,13.32,0.104,87.8
2019-11-10T04:04:08,42.805,6.029,0.072,-0.008,-0.008,99.0,106.0,98.0,13.4,1505.2,324.6,-0.7,1.8,2470.167,13.3,0.072,96.3
2019-11-10T04:07:11,42.805,6.029,0.063,0.004,0.016,99.0,105.0,97.0,13.3,1505.3,323.1,-0.7,1.8,2470.127,13.31,0.063,86.4
2019-11-10T04:10:14,42.805,6.029,0.062,0.01,-0.027,99.0,103.0,98.0,13.3,1505.3,325.6,-0.7,1.8,2470.11,13.31,0.062,80.8
2019-11-10T04:13:17,42.805,6.029,0.061,-0.013,-0.031,99.0,105.0,96.0,13.4,1505.3,327.6,-0.7,1.8,2470.177,13.32,0.062,102.0
2019-11-10T04:16:20,42.805,6.029,0.059,0.006,0.009,99.0,104.0,98.0,13.4,1505.3,326.8,-0.7,1.8,2470.11,13.32,0.059,84.2
2019-11-10T04:19:23,42.805,6.029,0.051,-0.009,-0.015,100.0,105.0,98.0,13.3,1505.3,328.2,-0.7,1.8,2470.099,13.32,0.051,100.0
2019-11-10T04:22:26,42.805,6.029,0.07,-0.032,-0.007,100.0,104.0,98.0,13.4,1505.3,326.4,-0.7,1.9,2470.152,13.32,0.076,114.6
2019-11-10T04:25:29,42.805,6.029,0.069,0.005,-0.018,99.0,104.0,97.0,13.4,1505.3,325.0,-0.7,1.8,2470.157,13.32,0.069,85.9
2019-11-10T04:28:32,42.805,6.029,0.08,0.0,-0.011,99.0,103.0,98.0,13.4,1505.3,324.3,-0.7,1.8,2470.096,13.32,0.079,90.0
2019-11-10T04:31:35,42.805,6.029,0.045,-0.002,0.016,101.0,105.0,98.0,13.4,1505.3,323.5,-0.7,1.9,2470.125,13.32,0.045,92.5
2019-11-10T04:34:38,42.805,6.029,0.073,-0.008,-0.029,99.0,104.0,97.0,13.4,1505.3,324.7,-0.7,1.8,2470.12,13.32,0.073,96.3
2019-11-10T04:37:41,42.805,6.029,0.07,0.012,-0.026,99.0,102.0,97.0,13.4,1505.3,322.8,-0.7,1.9,2470.139,13.32,0.071,80.3
2019-11-10T04:40:44,42.805,6.029,0.074,-0.012,-0.018,99.0,104.0,98.0,13.3,1505.3,324.6,-0.7,1.8,2470.146,13.32,0.074,99.2
2019-11-10T04:43:47,42.805,6.029,0.084,-0.016,-0.009,98.0,102.0,98.0,13.4,1505.3,323.9,-0.7,1.8,2470.113,13.32,0.085,100.8
2019-11-10T04:46:50,42.805,6.029,0.055,-0.015,-0.052,98.0,104.0,98.0,13.4,1505.3,324.9,-0.7,1.8,2470.196,13.32,0.057,105.3
2019-11-10T04:49:53,42.805,6.029,0.082,-0.007,-0.003,100.0,103.0,97.0,13.3,1505.3,328.3,-0.7,1.8,2470.136,13.32,0.082,94.9
2019-11-10T04:52:56,42.805,6.029,0.082,0.001,0.009,99.0,102.0,97.0,13.4,1505.3,325.5,-0.7,1.8,2470.133,13.32,0.082,89.3
2019-11-10T04:55:59,42.805,6.029,0.051,0.003,-0.062,99.0,102.0,97.0,13.4,1505.3,326.0,-0.7,1.8,2470.132,13.32,0.051,86.6
2019-11-10T04:59:02,42.805,6.029,0.075,0.005,0.01,99.0,103.0,97.0,13.3,1505.3,326.3,-0.7,1.8,2470.121,13.32,0.075,86.2
2019-11-10T05:09:08,42.805,6.029,0.076,-0.017,-0.042,99.0,101.0,97.0,13.3,1505.2,326.5,-0.8,1.8,2470.247,13.29,0.077,102.6
2019-11-10T05:12:11,42.805,6.029,0.047,-0.02,-0.032,98.0,103.0,98.0,13.4,1505.2,327.8,-0.7,1.8,2470.224,13.3,0.051,113.0
2019-11-10T05:15:14,42.805,6.029,0.048,-0.013,-0.025,99.0,102.0,97.0,13.4,1505.3,323.7,-0.7,1.8,2470.214,13.31,0.049,105.2
2019-11-10T05:18:17,42.805,6.029,0.082,-0.003,-0.034,100.0,101.0,97.0,13.4,1505.3,326.7,-0.7,1.8,2470.194,13.31,0.082,92.1
2019-11-10T05:21:20,42.805,6.029,0.068,-0.023,-0.024,101.0,102.0,97.0,13.4,1505.3,325.0,-0.7,1.8,2470.195,13.31,0.071,108.7
2019-11-10T05:24:23,42.805,6.029,0.084,-0.006,-0.048,99.0,102.0,98.0,13.4,1505.3,324.8,-0.7,1.8,2470.166,13.31,0.084,94.1
2019-11-10T05:27:26,42.805,6.029,0.047,-0.015,-0.032,99.0,101.0,98.0,13.4,1505.3,328.5,-0.7,1.9,2470.2,13.32,0.049,107.7
2019-11-10T05:30:29,42.805,6.029,0.072,-0.026,-0.016,99.0,102.0,99.0,13.4,1505.3,327.0,-0.6,1.8,2470.146,13.32,0.076,109.9
2019-11-10T05:33:32,42.805,6.029,0.078,-0.007,-0.04,100.0,101.0,98.0,13.3,1505.3,325.5,-0.7,1.8,2470.165,13.32,0.078,95.1
2019-11-10T05:36:35,42.805,6.029,0.063,0.007,-0.018,99.0,102.0,97.0,13.4,1505.3,328.3,-0.7,1.8,2470.149,13.32,0.063,83.7
2019-11-10T05:39:38,42.805,6.029,0.088,-0.02,-0.026,97.0,101.0,99.0,13.4,1505.3,328.6,-0.7,1.9,2470.166,13.32,0.09,102.8
2019-11-10T05:42:41,42.805,6.029,0.089,-0.023,-0.032,99.0,102.0,97.0,13.3,1505.3,323.0,-0.7,1.8,2470.18,13.32,0.091,104.5
2019-11-10T05:45:44,42.805,6.029,0.063,-0.02,-0.045,100.0,101.0,98.0,13.4,1505.3,327.2,-0.7,1.9,2470.121,13.32,0.066,107.6
2019-11-10T05:48:47,42.805,6.029,0.088,0.009,-0.022,100.0,103.0,98.0,13.4,1505.3,324.9,-0.7,1.9,2470.171,13.32,0.088,84.2
2019-11-10T05:51:50,42.805,6.029,0.06,-0.016,0.004,100.0,102.0,97.0,13.3,1505.3,327.4,-0.7,1.8,2470.162,13.32,0.062,104.9
2019-11-10T05:54:53,42.805,6.029,0.074,-0.018,-0.014,100.0,102.0,98.0,13.4,1505.3,326.8,-0.7,1.8,2470.157,13.32,0.076,103.7
2019-11-10T05:57:56,42.805,6.029,0.053,-0.014,-0.039,100.0,101.0,98.0,13.3,1505.3,328.0,-0.7,1.8,2470.118,13.32,0.054,104.8
2019-11-10T06:09:08,42.805,6.029,0.079,-0.013,-0.018,98.0,103.0,97.0,13.3,1505.2,326.0,-0.8,1.8,2470.21,13.29,0.08,99.3
2019-11-10T06:12:11,42.805,6.029,0.087,-0.011,-0.014,100.0,102.0,97.0,13.4,1505.2,328.4,-0.7,1.9,2470.179,13.3,0.087,97.2
2019-11-10T06:15:14,42.805,6.029,0.036,-0.003,-0.026,99.0,102.0,98.0,13.4,1505.3,327.1,-0.7,1.8,2470.17,13.31,0.036,94.8
2019-11-10T06:18:17,42.805,6.029,0.056,-0.003,-0.036,100.0,102.0,98.0,13.3,1505.3,324.4,-0.7,1.8,2470.173,13.31,0.056,93.1
2019-11-10T06:21:20,42.805,6.029,0.074,-0.013,-0.009,98.0,103.0,99.0,13.3,1505.3,324.6,-0.7,1.8,2470.191,13.31,0.075,100.0
2019-11-10T06:24:23,42.805,6.029,0.075,0.009,-0.019,98.0,102.0,98.0,13.4,1505.3,325.1,-0.7,1.8,2470.173,13.32,0.075,83.2
2019-11-10T06:27:26,42.805,6.029,0.074,0.002,-0.027,100.0,103.0,98.0,13.4,1505.3,325.7,-0.7,1.8,2470.166,13.32,0.074,88.5
2019-11-10T06:30:29,42.805,6.029,0.057,-0.019,-0.014,101.0,101.0,99.0,13.4,1505.3,325.5,-0.7,1.8,2470.178,13.32,0.06,108.4
2019-11-10T06:33:32,42.805,6.029,0.059,-0.025,-0.034,99.0,101.0,98.0,13.4,1505.3,326.3,-0.7,1.9,2470.164,13.32,0.064,113.0
2019-11-10T06:36:35,42.805,6.029,0.069,-0.023,-0.042,99.0,103.0,98.0,13.3,1505.3,324.7,-0.7,1.8,2470.219,13.32,0.072,108.4
2019-11-10T06:39:38,42.805,6.029,0.068,-0.005,-0.01,99.0,102.0,98.0,13.4,1505.3,326.7,-0.7,1.8,2470.178,13.32,0.068,94.2
2019-11-10T06:42:41,42.805,6.029,0.057,-0.021,0.001,101.0,101.0,98.0,13.3,1505.3,326.5,-0.7,1.8,2470.135,13.32,0.06,110.2
2019-11-10T06:45:44,42.805,6.029,0.052,-0.017,-0.005,98.0,103.0,99.0,13.4,1505.3,327.2,-0.7,1.8,2470.122,13.32,0.054,108.1
2019-11-10T06:48:47,42.805,6.029,0.046,-0.005,-0.01,100.0,102.0,98.0,13.4,1505.3,326.2,-0.7,1.8,2470.132,13.32,0.046,96.2
2019-11-10T06:51:50,42.805,6.029,0.075,-0.029,-0.026,99.0,102.0,98.0,13.3,1505.3,325.3,-0.8,1.8,2470.135,13.32,0.08,111.1
2019-11-10T06:54:53,42.805,6.029,0.073,-0.022,-0.041,100.0,104.0,98.0,13.4,1505.3,326.7,-0.7,1.9,2470.176,13.32,0.076,106.8
2019-11-10T06:57:56,42.805,6.029,0.084,-0.002,0.012,99.0,102.0,98.0,13.4,1505.3,328.0,-0.7,1.9,2470.128,13.32,0.084,91.4
2019-11-10T07:09:08,42.805,6.029,0.101,-0.011,-0.01,100.0,102.0,98.0,13.4,1505.2,325.5,-0.7,1.8,2470.162,13.29,0.101,96.2
2019-11-10T07:12:11,42.805,6.029,0.076,-0.017,-0.018,99.0,103.0,97.0,13.4,1505.2,326.4,-0.8,1.9,2470.223,13.3,0.077,102.6
2019-11-10T07:15:14,42.805,6.029,0.058,-0.021,-0.025,99.0,103.0,97.0,13.4,1505.3,325.4,-0.7,1.8,2470.203,13.31,0.061,109.9
2019-11-10T07:18:17,42.805,6.029,0.09,-0.006,-0.026,99.0,103.0,98.0,13.3,1505.3,327.8,-0.7,1.8,2470.194,13.31,0.09,93.8
2019-11-10T07:21:20,42.805,6.029,0.062,-0.009,0.003,99.0,103.0,97.0,13.3,1505.3,326.0,-0.7,1.8,2470.188,13.31,0.062,98.3
2019-11-10T07:24:23,42.805,6.029,0.069,-0.012,0.003,100.0,101.0,98.0,13.4,1505.3,324.8,-0.7,1.8,2470.181,13.32,0.07,99.9
2019-11-10T07:27:26,42.805,6.029,0.064,-0.025,-0.027,98.0,102.0,98.0,13.4,1505.3,326.9,-0.7,1.8,2470.195,13.32,0.068,111.3
2019-11-10T07:30:29,42.805,6.029,0.064,-0.01,0.004,100.0,101.0,98.0,13.4,1505.3,323.7,-0.7,1.8,2470.144,13.32,0.064,98.9
2019-11-10T07:33:32,42.805,6.029,0.043,-0.031,-0.042,99.0,102.0,98.0,13.4,1505.3,323.3,-0.7,1.8,2470.145,13.32,0.053,125.8
2019-11-10T07:36:35,42.805,6.029,0.043,-0.023,-0.041,100.0,100.0,97.0,13.4,1505.3,324.4,-0.8,1.8,2470.108,13.32,0.048,118.1
2019-11-10T07:39:38,42.805,6.029,0.065,-0.018,-0.001,99.0,102.0,98.0,13.3,1505.3,326.6,-0.7,1.8,2470.142,13.32,0.067,105.5
2019-11-10T07:42:41,42.805,6.029,0.074,-0.033,0.003,99.0,101.0,98.0,13.4,1505.3,323.6,-0.7,1.9,2470.16,13.32,0.081,114.0
2019-11-10T07:45:44,42.805,6.029,0.054,-0.013,-0.03,100.0,102.0,98.0,13.4,1505.3,323.6,-0.7,1.8,2470.148,13.32,0.055,103.5
2019-11-10T07:48:47,42.805,6.029,0.042,-0.023,-0.075,100.0,101.0,98.0,13.4,1505.3,326.6,-0.7,1.8,2470.144,13.32,0.047,118.7
2019-11-10T07:51:50,42.805,6.029,0.068,0.005,-0.018,100.0,103.0,97.0,13.4,1505.3,326.3,-0.7,1.9,2470.138,13.32,0.068,85.8
2019-11-10T07:54:53,42.805,6.029,0.084,-0.014,-0.041,99.0,102.0,97.0,13.4,1505.3,323.3,-0.7,1.9,2470.188,13.32,0.085,99.5
2019-11-10T07:57:56,42.805,6.029,0.075,-0.014,0.003,99.0,101.0,98.0,13.3,1505.3,327.1,-0.7,1.8,2470.125,13.32,0.076,100.6
2019-11-10T08:09:08,42.805,6.029,0.065,0.002,0.017,100.0,102.0,98.0,13.4,1505.2,324.7,-0.7,1.8,2470.176,13.29,0.065,88.2
2019-11-10T08:12:11,42.805,6.029,0.064,0.003,-0.004,98.0,102.0,99.0,13.3,1505.2,324.3,-0.7,1.8,2470.165,13.3,0.064,87.3
2019-11-10T08:15:14,42.805,6.029,0.075,-0.01,-0.014,101.0,100.0,98.0,13.3,1505.3,325.4,-0.7,1.8,2470.188,13.31,0.075,97.6
2019-11-10T08:18:17,42.805,6.029,0.078,-0.003,-0.001,100.0,103.0,98.0,13.4,1505.3,323.8,-0.7,1.8,2470.209,13.31,0.078,92.2
2019-11-10T08:21:20,42.805,6.029,0.067,-0.005,0.01,99.0,101.0,98.0,13.4,1505.3,325.3,-0.7,1.9,2470.187,13.32,0.067,94.3
2019-11-10T08:24:23,42.805,6.029,0.057,0.002,-0.031,100.0,100.0,99.0,13.4,1505.3,323.3,-0.7,1.9,2470.093,13.32,0.057,88.0
2019-11-10T08:27:26,42.805,6.029,0.049,0.003,-0.006,99.0,101.0,98.0,13.4,1505.3,323.7,-0.7,1.8,2470.156,13.32,0.049,86.5
2019-11-10T08:30:29,42.805,6.029,0.066,0.005,-0.014,98.0,103.0,98.0,13.4,1505.3,326.0,-0.7,1.8,2470.156,13.32,0.066,85.7
2019-11-10T08:33:32,42.805,6.029,0.049,-0.017,-0.045,99.0,102.0,98.0,13.4,1505.3,328.0,-0.7,1.8,2470.159,13.32,0.051,109.1
2019-11-10T08:36:35,42.805,6.029,0.067,-0.018,-0.015,98.0,102.0,98.0,13.4,1505.3,325.4,-0.8,1.8,2470.13,13.32,0.069,105.0
2019-11-10T08:39:38,42.805,6.029,0.057,-0.002,-0.031,100.0,101.0,98.0,13.4,1505.3,327.6,-0.7,1.8,2470.134,13.32,0.057,92.0
2019-11-10T08:42:41,42.805,6.029,0.07,-0.007,-0.027,101.0,99.0,97.0,13.4,1505.3,326.5,-0.7,1.8,2470.116,13.32,0.07,95.7
2019-11-10T08:45:44,42.805,6.029,0.057,-0.007,-0.018,101.0,101.0,98.0,13.4,1505.3,327.5,-0.7,1.8,2470.127,13.32,0.057,97.0
2019-11-10T08:48:47,42.805,6.029,0.075,-0.018,-0.022,100.0,101.0,99.0,13.4,1505.3,326.7,-0.7,1.8,2470.164,13.32,0.077,103.5
2019-11-10T08:51:50,42.805,6.029,0.072,-0.029,-0.042,98.0,104.0,97.0,13.4,1505.3,326.2,-0.7,1.8,2470.162,13.32,0.077,111.9
2019-11-10T08:54:53,42.805,6.029,0.063,-0.011,-0.012,100.0,100.0,98.0,13.4,1505.3,324.7,-0.7,1.8,2470.116,13.32,0.063,99.9
2019-11-10T08:57:56,42.805,6.029,0.056,-0.007,-0.008,99.0,102.0,98.0,13.3,1505.3,323.2,-0.7,1.8,2470.141,13.32,0.056,97.1
2019-11-10T09:09:08,42.805,6.029,0.059,-0.025,-0.035,100.0,102.0,97.0,13.4,1505.2,327.3,-0.8,1.8,2470.184,13.29,0.064,113.0
2019-11-10T09:12:11,42.805,6.029,0.082,0.008,0.011,100.0,101.0,97.0,13.4,1505.2,326.2,-0.7,1.8,2470.198,13.3,0.082,84.4
2019-11-10T09:15:14,42.805,6.029,0.063,-0.032,-0.015,100.0,100.0,98.0,13.3,1505.3,326.8,-0.7,1.8,2470.146,13.31,0.07,116.9
2019-11-10T09:18:17,42.805,6.029,0.067,-0.01,-0.017,101.0,103.0,96.0,13.4,1505.3,327.2,-0.7,1.9,2470.139,13.31,0.067,98.5
2019-11-10T09:21:20,42.805,6.029,0.057,-0.019,-0.017,100.0,102.0,98.0,13.3,1505.3,324.2,-0.7,1.8,2470.175,13.32,0.06,108.4
2019-11-10T09:24:23,42.805,6.029,0.051,-0.002,-0.045,100.0,101.0,99.0,13.4,1505.3,326.2,-0.7,1.8,2470.143,13.32,0.051,92.2
2019-11-10T09:27:26,42.805,6.029,0.05,-0.008,-0.013,99.0,103.0,98.0,13.3,1505.3,325.3,-0.7,1.9,2470.173,13.32,0.05,99.1
2019-11-10T09:30:29,42.805,6.029,0.066,-0.001,-0.026,99.0,102.0,98.0,13.4,1505.3,328.0,-0.7,1.8,2470.163,13.32,0.066,90.9
2019-11-10T09:33:32,42.805,6.029,0.021,0.005,-0.033,100.0,102.0,98.0,13.4,1505.3,328.1,-0.8,1.9,2470.134,13.32,0.021,76.6
2019-11-10T09:36:35,42.805,6.029,0.066,-0.013,-0.019,98.0,103.0,98.0,13.4,1505.3,325.5,-0.7,1.8,2470.132,13.32,0.067,101.1
2019-11-10T09:39:38,42.805,6.029,0.074,-0.03,-0.015,100.0,102.0,98.0,13.4,1505.3,327.6,-0.7,1.8,2470.141,13.32,0.079,112.1
2019-11-10T09:42:41,42.805,6.029,0.054,-0.001,-0.032,100.0,102.0,98.0,13.3,1505.3,323.4,-0.7,1.8,2470.125,13.32,0.054,91.1
2019-11-10T09:45:44,42.805,6.029,0.091,-0.035,0.001,101.0,102.0,97.0,13.4,1505.3,328.4,-0.7,1.8,2470.162,13.32,0.097,111.0
2019-11-10T09:48:47,42.805,6.029,0.051,-0.006,-0.039,100.0,101.0,98.0,13.4,1505.3,327.1,-0.7,1.8,2470.101,13.32,0.051,96.7
2019-11-10T09:51:50,42.805,6.029,0.071,-0.027,-0.021,100.0,103.0,98.0,13.3,1505.3,326.5,-0.7,1.8,2470.105,13.32,0.075,110.8
2019-11-10T09:54:53,42.805,6.029,0.053,0.028,-0.008,99.0,103.0,97.0,13.4,1505.3,323.3,-0.7,1.8,2470.157,13.32,0.059,62.1
2019-11-10T09:57:56,42.805,6.029,0.083,-0.014,-0.036,100.0,102.0,99.0,13.3,1505.3,324.6,-0.7,1.8,2470.07,13.32,0.084,99.6
2019-11-10T10:09:08,42.805,6.029,0.064,0.014,-0.02,101.0,103.0,98.0,13.4,1505.2,324.6,-0.7,1.8,2470.151,13.29,0.065,77.7
2019-11-10T10:12:11,42.805,6.029,0.071,0.007,-0.028,99.0,104.0,99.0,13.4,1505.2,327.4,-0.7,1.8,2470.165,13.3,0.071,84.4
2019-11-10T10:15:14,42.805,6.029,0.078,-0.012,-0.018,99.0,102.0,99.0,13.3,1505.3,324.2,-0.7,1.8,2470.139,13.31,0.078,98.7
2019-11-10T10:18:17,42.805,6.029,0.084,0.016,-0.023,100.0,102.0,98.0,13.4,1505.3,327.7,-0.7,1.9,2470.149,13.32,0.085,79.2
2019-11-10T10:21:20,42.805,6.029,0.053,-0.002,-0.023,101.0,103.0,98.0,13.4,1505.3,328.3,-0.7,1.8,2470.092,13.32,0.053,92.2
2019-11-10T10:24:23,42.805,6.029,0.062,-0.004,-0.016,100.0,103.0,99.0,13.3,1505.3,327.9,-0.7,1.8,2470.122,13.32,0.062,93.7
2019-11-10T10:27:26,42.805,6.029,0.053,-0.023,-0.032,100.0,103.0,98.0,13.4,1505.3,326.7,-0.7,1.8,2470.117,13.32,0.057,113.5
2019-11-10T10:30:29,42.805,6.029,0.074,-0.013,-0.005,100.0,103.0,98.0,13.4,1505.3,327.4,-0.7,1.8,2470.11,13.32,0.075,100.0
2019-11-10T10:33:32,42.805,6.029,0.08,0.001,-0.007,99.0,103.0,99.0,13.4,1505.3,327.4,-0.7,1.8,2470.12,13.32,0.08,89.3
2019-11-10T10:36:35,42.805,6.029,0.081,-0.019,-0.038,100.0,102.0,98.0,13.4,1505.3,328.4,-0.7,1.8,2470.097,13.32,0.083,103.2
2019-11-10T10:39:38,42.805,6.029,0.073,0.006,-0.008,101.0,102.0,98.0,13.4,1505.3,328.2,-0.7,1.9,2470.118,13.32,0.073,85.3
2019-11-10T10:42:41,42.805,6.029,0.08,-0.02,-0.041,101.0,102.0,97.0,13.3,1505.3,325.8,-0.7,1.8,2470.085,13.32,0.082,104.0
2019-11-10T10:45:44,42.805,6.029,0.03,0.025,-0.005,99.0,103.0,98.0,13.4,1505.3,326.9,-0.7,1.8,2470.102,13.32,0.039,50.2
2019-11-10T10:48:47,42.805,6.029,0.024,-0.004,-0.034,100.0,103.0,98.0,13.3,1505.3,324.8,-0.7,1.8,2470.086,13.32,0.024,99.5
2019-11-10T10:51:50,42.805,6.029,0.061,-0.011,-0.057,102.0,102.0,97.0,13.4,1505.3,325.6,-0.7,1.8,2470.094,13.32,0.061,100.2
2019-11-10T10:54:53,42.805,6.029,0.068,-0.009,-0.016,102.0,103.0,98.0,13.4,1505.3,323.5,-0.7,1.8,2470.072,13.32,0.068,97.5
2019-11-10T10:57:56,42.805,6.029,0.057,0.002,-0.042,102.0,104.0,98.0,13.4,1505.3,327.0,-0.8,1.8,2470.064,13.32,0.057,88.0
2019-11-10T11:09:08,42.805,6.029,0.043,0.015,-0.036,99.0,104.0,98.0,13.3,1505.2,324.4,-0.8,1.8,2470.184,13.29,0.045,70.8
2019-11-10T11:12:11,42.805,6.029,0.073,0.0,-0.05,101.0,103.0,99.0,13.4,1505.3,326.2,-0.7,1.8,2470.09,13.31,0.072,90.0